| time (UTC) | temp C | wind direction | speed KPH | gust KPH | rain 1hr cm | rain 24hr cm | rain mn cm | humidity % | barometer mb |
| 20260506041505 | 20 | 230 | 4.8 | 9.7 | 0.00 | 0.00 | 0.00 | 31 | 1010.1 |
| 20260506041005 | 20 | 288 | 3.2 | 11.3 | 0.00 | 0.00 | 0.00 | 31 | 1010.1 |
| 20260506040505 | 20 | 317 | 4.8 | 14.5 | 0.00 | 0.00 | 0.00 | 30 | 1010.1 |
| 20260506040005 | 20 | 287 | 6.4 | 17.7 | 0.00 | 0.00 | 0.00 | 30 | 1010.0 |
| 20260506035505 | 20 | 283 | 6.4 | 17.7 | 0.00 | 0.00 | 0.00 | 30 | 1009.8 |
| 20260506035005 | 20 | 278 | 4.8 | 16.1 | 0.00 | 0.00 | 0.00 | 30 | 1009.8 |
| 20260506034504 | 20 | 265 | 3.2 | 16.1 | 0.00 | 0.00 | 0.00 | 30 | 1009.8 |
| 20260506034004 | 21 | 308 | 4.8 | 11.3 | 0.00 | 0.00 | 0.00 | 30 | 1009.7 |
| 20260506033503 | 21 | 278 | 4.8 | 11.3 | 0.00 | 0.00 | 0.00 | 30 | 1009.7 |
| 20260506033005 | 21 | 295 | 3.2 | 11.3 | 0.00 | 0.00 | 0.00 | 30 | 1009.6 |
| 20260506032503 | 21 | 233 | 3.2 | 12.9 | 0.00 | 0.00 | 0.00 | 30 | 1009.6 |
| 20260506032003 | 21 | 275 | 3.2 | 12.9 | 0.00 | 0.00 | 0.00 | 29 | 1009.5 |
| 20260506031503 | 21 | 240 | 3.2 | 12.9 | 0.00 | 0.00 | 0.00 | 29 | 1009.4 |
| 20260506031003 | 21 | 235 | 4.8 | 14.5 | 0.00 | 0.00 | 0.00 | 29 | 1009.2 |
| 20260506030503 | 21 | 284 | 6.4 | 17.7 | 0.00 | 0.00 | 0.00 | 29 | 1009.2 |
| 20260506030003 | 21 | 258 | 6.4 | 16.1 | 0.00 | 0.00 | 0.00 | 29 | 1009.2 |
| 20260506025506 | 21 | 263 | 6.4 | 14.5 | 0.00 | 0.00 | 0.00 | 29 | 1009.1 |
| 20260506025003 | 21 | 263 | 1.6 | 14.5 | 0.00 | 0.00 | 0.00 | 28 | 1009.0 |
| 20260506024504 | 21 | 278 | 4.8 | 11.3 | 0.00 | 0.00 | 0.00 | 28 | 1008.9 |
| 20260506024002 | 21 | 205 | 4.8 | 11.3 | 0.00 | 0.00 | 0.00 | 28 | 1008.8 |
| 20260506023502 | 21 | 251 | 3.2 | 17.7 | 0.00 | 0.00 | 0.00 | 28 | 1008.8 |
| 20260506023002 | 21 | 265 | 3.2 | 17.7 | 0.00 | 0.00 | 0.00 | 28 | 1008.8 |
| 20260506022502 | 21 | 225 | 4.8 | 12.9 | 0.00 | 0.00 | 0.00 | 28 | 1008.8 |
| 20260506022001 | 21 | 293 | 4.8 | 12.9 | 0.00 | 0.00 | 0.00 | 28 | 1008.7 |
| 20260506021503 | 21 | 260 | 1.6 | 19.3 | 0.00 | 0.00 | 0.00 | 28 | 1008.6 |
| 20260506021001 | 22 | 290 | 3.2 | 19.3 | 0.00 | 0.00 | 0.00 | 27 | 1008.5 |
| 20260506020503 | 22 | 192 | 3.2 | 9.7 | 0.00 | 0.00 | 0.00 | 27 | 1008.4 |
| 20260506020002 | 22 | 261 | 3.2 | 11.3 | 0.00 | 0.00 | 0.00 | 26 | 1008.4 |
| 20260506015503 | 22 | 254 | 4.8 | 12.9 | 0.00 | 0.00 | 0.00 | 26 | 1008.3 |
| 20260506015001 | 22 | 269 | 4.8 | 12.9 | 0.00 | 0.00 | 0.00 | 26 | 1008.4 |
| 20260506014600 | 22 | 241 | 6.4 | 12.9 | 0.00 | 0.00 | 0.00 | 26 | 1008.4 |
| 20260506014100 | 22 | 208 | 4.8 | 14.5 | 0.00 | 0.00 | 0.00 | 26 | 1008.3 |
| 20260506013600 | 22 | 194 | 6.4 | 14.5 | 0.00 | 0.00 | 0.00 | 26 | 1008.2 |
| 20260506013100 | 23 | 249 | 6.4 | 16.1 | 0.00 | 0.00 | 0.00 | 25 | 1008.2 |
| 20260506012600 | 23 | 264 | 9.7 | 16.1 | 0.00 | 0.00 | 0.00 | 25 | 1008.1 |
| 20260506012103 | 23 | 265 | 6.4 | 16.1 | 0.00 | 0.00 | 0.00 | 25 | 1008.1 |
| 20260506011559 | 23 | 207 | 3.2 | 16.1 | 0.00 | 0.00 | 0.00 | 25 | 1007.9 |
| 20260506011059 | 23 | 274 | 3.2 | 12.9 | 0.00 | 0.00 | 0.00 | 25 | 1007.9 |
| 20260506010559 | 23 | 215 | 4.8 | 11.3 | 0.00 | 0.00 | 0.00 | 24 | 1007.9 |
| 20260506005559 | 23 | 194 | 3.2 | 14.5 | 0.00 | 0.00 | 0.00 | 24 | 1007.7 |
| 20260506005058 | 24 | 188 | 4.8 | 14.5 | 0.00 | 0.00 | 0.00 | 24 | 1007.7 |
| 20260506004557 | 24 | 226 | 3.2 | 14.5 | 0.00 | 0.00 | 0.00 | 24 | 1007.7 |
| 20260506004057 | 24 | 234 | 3.2 | 14.5 | 0.00 | 0.00 | 0.00 | 24 | 1007.6 |
| 20260506003601 | 24 | 262 | 4.8 | 11.3 | 0.00 | 0.00 | 0.00 | 23 | 1007.7 |
| 20260506003107 | 24 | 302 | 1.6 | 19.3 | 0.00 | 0.00 | 0.00 | 23 | 1007.6 |
| 20260506002601 | 24 | 257 | 6.4 | 19.3 | 0.00 | 0.00 | 0.00 | 23 | 1007.5 |
| 20260506002057 | 25 | 204 | 6.4 | 17.7 | 0.00 | 0.00 | 0.00 | 23 | 1007.5 |
| 20260506001616 | 25 | 250 | 6.4 | 17.7 | 0.00 | 0.00 | 0.00 | 23 | 1007.5 |
| 20260506001057 | 25 | 225 | 8.0 | 17.7 | 0.00 | 0.00 | 0.00 | 23 | 1007.5 |
| 20260506000557 | 25 | 220 | 3.2 | 16.1 | 0.00 | 0.00 | 0.00 | 23 | 1007.4 |
| 20260506000056 | 25 | 195 | 4.8 | 12.9 | 0.00 | 0.00 | 0.00 | 23 | 1007.5 |
| 20260505235556 | 25 | 224 | 3.2 | 16.1 | 0.00 | 0.00 | 0.00 | 24 | 1007.4 |
| 20260505235056 | 25 | 253 | 6.4 | 17.7 | 0.00 | 0.00 | 0.00 | 24 | 1007.3 |
| 20260505234610 | 24 | 284 | 6.4 | 20.9 | 0.00 | 0.00 | 0.00 | 25 | 1007.3 |
| 20260505234055 | 25 | 190 | 6.4 | 17.7 | 0.00 | 0.00 | 0.00 | 25 | 1007.3 |
| 20260505233556 | 25 | 313 | 8.0 | 17.7 | 0.00 | 0.00 | 0.00 | 25 | 1007.3 |
| 20260505233055 | 25 | 232 | 4.8 | 17.7 | 0.00 | 0.00 | 0.00 | 25 | 1007.3 |
| 20260505232554 | 25 | 267 | 8.0 | 17.7 | 0.00 | 0.00 | 0.00 | 24 | 1007.2 |
| 20260505232056 | 24 | 202 | 6.4 | 17.7 | 0.00 | 0.00 | 0.00 | 24 | 1007.2 |
| 20260505231554 | 24 | 259 | 8.0 | 19.3 | 0.00 | 0.00 | 0.00 | 24 | 1007.2 |
| 20260505231053 | 23 | 296 | 6.4 | 14.5 | 0.00 | 0.00 | 0.00 | 25 | 1007.4 |
| 20260505230553 | 24 | 282 | 4.8 | 20.9 | 0.00 | 0.00 | 0.00 | 25 | 1007.3 |
| 20260505230054 | 24 | 246 | 9.7 | 20.9 | 0.00 | 0.00 | 0.00 | 24 | 1007.5 |
| 20260505225556 | 25 | 221 | 6.4 | 16.1 | 0.00 | 0.00 | 0.00 | 24 | 1007.4 |
| 20260505225052 | 25 | 181 | 3.2 | 16.1 | 0.00 | 0.00 | 0.00 | 24 | 1007.5 |
| 20260505224552 | 25 | 255 | 6.4 | 17.7 | 0.00 | 0.00 | 0.00 | 23 | 1007.4 |
| 20260505224050 | 25 | 240 | 4.8 | 14.5 | 0.00 | 0.00 | 0.00 | 23 | 1007.5 |
| 20260505223550 | 25 | 257 | 6.4 | 19.3 | 0.00 | 0.00 | 0.00 | 23 | 1007.6 |
| 20260505223104 | 25 | 279 | 9.7 | 19.3 | 0.00 | 0.00 | 0.00 | 23 | 1007.7 |
| 20260505222549 | 25 | 279 | 1.6 | 19.3 | 0.00 | 0.00 | 0.00 | 25 | 1007.7 |
| 20260505222048 | 25 | 226 | 3.2 | 19.3 | 0.00 | 0.00 | 0.00 | 25 | 1007.8 |
| 20260505221548 | 25 | 295 | 6.4 | 16.1 | 0.00 | 0.00 | 0.00 | 24 | 1007.8 |
| 20260505221047 | 25 | 308 | 1.6 | 17.7 | 0.00 | 0.00 | 0.00 | 25 | 1007.9 |
| 20260505220546 | 25 | 191 | 4.8 | 19.3 | 0.00 | 0.00 | 0.00 | 25 | 1008.1 |
| 20260505220048 | 25 | 259 | 8.0 | 19.3 | 0.00 | 0.00 | 0.00 | 24 | 1008.0 |
| 20260505215545 | 25 | 231 | 3.2 | 19.3 | 0.00 | 0.00 | 0.00 | 25 | 1008.2 |
| 20260505215045 | 25 | 216 | 4.8 | 14.5 | 0.00 | 0.00 | 0.00 | 25 | 1008.2 |
| 20260505214554 | 25 | 225 | 6.4 | 16.1 | 0.00 | 0.00 | 0.00 | 25 | 1008.2 |
| 20260505214045 | 25 | 196 | 1.6 | 19.3 | 0.00 | 0.00 | 0.00 | 25 | 1008.4 |
| 20260505213544 | 26 | 205 | 8.0 | 17.7 | 0.00 | 0.00 | 0.00 | 24 | 1008.5 |
| 20260505213044 | 25 | 237 | 3.2 | 14.5 | 0.00 | 0.00 | 0.00 | 26 | 1008.4 |
| 20260505212543 | 25 | 257 | 3.2 | 20.9 | 0.00 | 0.00 | 0.00 | 26 | 1008.5 |
| 20260505212043 | 25 | 277 | 6.4 | 24.1 | 0.00 | 0.00 | 0.00 | 25 | 1008.7 |
| 20260505211549 | 25 | 297 | 11.3 | 24.1 | 0.00 | 0.00 | 0.00 | 24 | 1008.8 |
| 20260505211041 | 25 | 146 | 4.8 | 14.5 | 0.00 | 0.00 | 0.00 | 26 | 1008.7 |
| 20260505210542 | 25 | 255 | 1.6 | 16.1 | 0.00 | 0.00 | 0.00 | 26 | 1008.8 |
| 20260505210041 | 25 | 309 | 6.4 | 24.1 | 0.00 | 0.00 | 0.00 | 25 | 1009.0 |
| 20260505205541 | 25 | 209 | 6.4 | 19.3 | 0.00 | 0.00 | 0.00 | 25 | 1009.0 |
| 20260505205041 | 25 | 167 | 4.8 | 19.3 | 0.00 | 0.00 | 0.00 | 26 | 1009.0 |
| 20260505204540 | 25 | 216 | 4.8 | 19.3 | 0.00 | 0.00 | 0.00 | 27 | 1009.0 |
| 20260505204040 | 24 | 289 | 4.8 | 16.1 | 0.00 | 0.00 | 0.00 | 28 | 1009.0 |
| 20260505203539 | 24 | 257 | 4.8 | 16.1 | 0.00 | 0.00 | 0.00 | 28 | 1009.2 |
| 20260505203050 | 25 | 261 | 1.6 | 17.7 | 0.00 | 0.00 | 0.00 | 27 | 1009.1 |
| 20260505202539 | 25 | 239 | 4.8 | 19.3 | 0.00 | 0.00 | 0.00 | 27 | 1009.1 |
| 20260505202039 | 25 | 169 | 8.0 | 19.3 | 0.00 | 0.00 | 0.00 | 26 | 1009.1 |
| 20260505201538 | 25 | 302 | 3.2 | 11.3 | 0.00 | 0.00 | 0.00 | 27 | 1009.1 |
| 20260505201037 | 25 | 223 | 1.6 | 14.5 | 0.00 | 0.00 | 0.00 | 26 | 1009.1 |
| 20260505200537 | 25 | 240 | 4.8 | 16.1 | 0.00 | 0.00 | 0.00 | 28 | 1009.1 |
| 20260505200034 | 25 | 186 | 4.8 | 16.1 | 0.00 | 0.00 | 0.00 | 28 | 1009.2 |
| 20260505195536 | 25 | 195 | 3.2 | 14.5 | 0.00 | 0.00 | 0.00 | 28 | 1009.3 |
| 20260505195033 | 24 | 219 | 3.2 | 16.1 | 0.00 | 0.00 | 0.00 | 29 | 1009.3 |
| 20260505194533 | 24 | 235 | 3.2 | 16.1 | 0.00 | 0.00 | 0.00 | 29 | 1009.6 |
| 20260505194034 | 24 | 269 | 4.8 | 16.1 | 0.00 | 0.00 | 0.00 | 29 | 1009.5 |
| 20260505193532 | 24 | 271 | 6.4 | 12.9 | 0.00 | 0.00 | 0.00 | 28 | 1009.6 |
| 20260505193032 | 24 | 200 | 3.2 | 11.3 | 0.00 | 0.00 | 0.00 | 28 | 1009.6 |
| 20260505192535 | 23 | 229 | 3.2 | 14.5 | 0.00 | 0.00 | 0.00 | 29 | 1009.6 |
| 20260505192032 | 23 | 188 | 3.2 | 19.3 | 0.00 | 0.00 | 0.00 | 30 | 1009.7 |
| 20260505191535 | 23 | 297 | 6.4 | 19.3 | 0.00 | 0.00 | 0.00 | 30 | 1009.7 |
| 20260505191032 | 23 | 261 | 4.8 | 19.3 | 0.00 | 0.00 | 0.00 | 29 | 1009.7 |
| 20260505190531 | 23 | 220 | 3.2 | 16.1 | 0.00 | 0.00 | 0.00 | 29 | 1009.7 |
| 20260505190036 | 24 | 279 | 6.4 | 16.1 | 0.00 | 0.00 | 0.00 | 28 | 1009.8 |
| 20260505185530 | 24 | 198 | 1.6 | 9.7 | 0.00 | 0.00 | 0.00 | 29 | 1009.7 |
| 20260505185029 | 24 | 196 | 3.2 | 9.7 | 0.00 | 0.00 | 0.00 | 29 | 1009.8 |
| 20260505184541 | 23 | 195 | 4.8 | 11.3 | 0.00 | 0.00 | 0.00 | 30 | 1009.7 |
| 20260505184026 | 23 | 240 | 4.8 | 14.5 | 0.00 | 0.00 | 0.00 | 31 | 1009.7 |
| 20260505183525 | 23 | 269 | 4.8 | 14.5 | 0.00 | 0.00 | 0.00 | 30 | 1009.8 |
| 20260505183035 | 23 | 288 | 4.8 | 11.3 | 0.00 | 0.00 | 0.00 | 31 | 1009.9 |
| 20260505182528 | 23 | 229 | 4.8 | 14.5 | 0.00 | 0.00 | 0.00 | 32 | 1009.9 |
| 20260505182024 | 23 | 188 | 4.8 | 12.9 | 0.00 | 0.00 | 0.00 | 32 | 1010.0 |
| 20260505181524 | 23 | 245 | 4.8 | 17.7 | 0.00 | 0.00 | 0.00 | 31 | 1010.1 |
| 20260505181023 | 22 | 202 | 4.8 | 17.7 | 0.00 | 0.00 | 0.00 | 33 | 1010.0 |
| 20260505180525 | 22 | 292 | 4.8 | 20.9 | 0.00 | 0.00 | 0.00 | 33 | 1010.1 |
| 20260505180020 | 22 | 254 | 6.4 | 16.1 | 0.00 | 0.00 | 0.00 | 33 | 1010.1 |
| 20260505175519 | 22 | 250 | 3.2 | 12.9 | 0.00 | 0.00 | 0.00 | 34 | 1010.2 |
| 20260505175017 | 22 | 238 | 4.8 | 12.9 | 0.00 | 0.00 | 0.00 | 33 | 1010.1 |
| 20260505174516 | 22 | 295 | 6.4 | 12.9 | 0.00 | 0.00 | 0.00 | 33 | 1010.1 |
| 20260505174015 | 22 | 231 | 4.8 | 12.9 | 0.00 | 0.00 | 0.00 | 34 | 1010.1 |
| 20260505173513 | 22 | 247 | 4.8 | 19.3 | 0.00 | 0.00 | 0.00 | 35 | 1010.0 |
| 20260505173016 | 22 | 225 | 4.8 | 19.3 | 0.00 | 0.00 | 0.00 | 35 | 1010.1 |
| 20260505172511 | 22 | 211 | 4.8 | 14.5 | 0.00 | 0.00 | 0.00 | 35 | 1010.0 |
| 20260505172010 | 22 | 303 | 6.4 | 11.3 | 0.00 | 0.00 | 0.00 | 35 | 1009.9 |
| 20260505171508 | 22 | 294 | 3.2 | 14.5 | 0.00 | 0.00 | 0.00 | 35 | 1009.9 |
| 20260505171007 | 21 | 304 | 3.2 | 14.5 | 0.00 | 0.00 | 0.00 | 35 | 1009.9 |
| 20260505170505 | 21 | 202 | 0.0 | 17.7 | 0.00 | 0.00 | 0.00 | 36 | 1009.9 |
| 20260505170009 | 21 | 258 | 6.4 | 17.7 | 0.00 | 0.00 | 0.00 | 36 | 1009.9 |
| 20260505165503 | 21 | 320 | 3.2 | 9.7 | 0.00 | 0.00 | 0.00 | 36 | 1009.9 |
| 20260505165002 | 21 | 212 | 3.2 | 12.9 | 0.00 | 0.00 | 0.00 | 35 | 1010.0 |
| 20260505164501 | 21 | 216 | 4.8 | 12.9 | 0.00 | 0.00 | 0.00 | 35 | 1010.0 |
| 20260505164104 | 21 | 188 | 1.6 | 11.3 | 0.00 | 0.00 | 0.00 | 35 | 1010.0 |
| 20260505163600 | 21 | 219 | 1.6 | 16.1 | 0.00 | 0.00 | 0.00 | 36 | 1010.0 |
| 20260505163058 | 20 | 211 | 3.2 | 16.1 | 0.00 | 0.00 | 0.00 | 36 | 1009.9 |
| 20260505162557 | 20 | 209 | 3.2 | 14.5 | 0.00 | 0.00 | 0.00 | 35 | 1010.0 |
| 20260505162058 | 20 | 229 | 1.6 | 14.5 | 0.00 | 0.00 | 0.00 | 36 | 1009.9 |
| 20260505161557 | 20 | 260 | 3.2 | 11.3 | 0.00 | 0.00 | 0.00 | 36 | 1009.9 |
| 20260505161057 | 20 | 174 | 3.2 | 11.3 | 0.00 | 0.00 | 0.00 | 37 | 1009.9 |
| 20260505160556 | 20 | 266 | 1.6 | 11.3 | 0.00 | 0.00 | 0.00 | 37 | 1010.0 |
| 20260505153055 | 18 | 227 | 1.6 | 8.0 | 0.00 | 0.00 | 0.00 | 39 | 1010.1 |
| 20260505152556 | 18 | 198 | 1.6 | 8.0 | 0.00 | 0.00 | 0.00 | 39 | 1010.0 |
| 20260505152051 | 18 | 250 | 1.6 | 8.0 | 0.00 | 0.00 | 0.00 | 39 | 1010.0 |
| 20260505151551 | 18 | 213 | 1.6 | 6.4 | 0.00 | 0.00 | 0.00 | 40 | 1010.2 |
| 20260505151050 | 18 | 252 | 1.6 | 8.0 | 0.00 | 0.00 | 0.00 | 40 | 1010.2 |
| 20260505150549 | 18 | 233 | 1.6 | 9.7 | 0.00 | 0.00 | 0.00 | 40 | 1010.2 |
| 20260505140541 | 17 | 262 | 3.2 | 9.7 | 0.00 | 0.00 | 0.00 | 46 | 1009.7 |
| 20260505125034 | 16 | 268 | 3.2 | 8.0 | 0.00 | 0.00 | 0.00 | 53 | 1008.9 |
| 20260505124535 | 16 | 271 | 0.0 | 4.8 | 0.00 | 0.00 | 0.00 | 54 | 1008.9 |
| 20260505124033 | 16 | 322 | 1.6 | 4.8 | 0.00 | 0.00 | 0.00 | 54 | 1008.8 |
| 20260505123533 | 16 | 268 | 1.6 | 6.4 | 0.00 | 0.00 | 0.00 | 54 | 1008.8 |
| 20260505123034 | 16 | 235 | 0.0 | 6.4 | 0.00 | 0.00 | 0.00 | 55 | 1008.8 |
| 20260505122533 | 16 | 248 | 0.0 | 6.4 | 0.00 | 0.00 | 0.00 | 55 | 1008.8 |
| 20260505122033 | 16 | 286 | 1.6 | 6.4 | 0.00 | 0.00 | 0.00 | 55 | 1008.6 |
| 20260505121538 | 16 | 231 | 0.0 | 4.8 | 0.00 | 0.00 | 0.00 | 56 | 1008.8 |
| 20260505121033 | 16 | 226 | 0.0 | 4.8 | 0.00 | 0.00 | 0.00 | 55 | 1008.8 |
| 20260505120535 | 16 | 216 | 0.0 | 4.8 | 0.00 | 0.00 | 0.00 | 55 | 1008.7 |
| 20260505120032 | 16 | 231 | 0.0 | 4.8 | 0.00 | 0.00 | 0.00 | 56 | 1008.6 |
| 20260505115531 | 16 | 225 | 0.0 | 3.2 | 0.00 | 0.00 | 0.00 | 56 | 1008.6 |
| 20260505115031 | 16 | 263 | 0.0 | 4.8 | 0.00 | 0.00 | 0.00 | 56 | 1008.5 |
| 20260505114530 | 17 | 254 | 0.0 | 4.8 | 0.00 | 0.00 | 0.00 | 57 | 1008.5 |
| 20260505114030 | 17 | 217 | 1.6 | 4.8 | 0.00 | 0.00 | 0.00 | 57 | 1008.5 |
| 20260505113529 | 17 | 217 | 0.0 | 4.8 | 0.00 | 0.00 | 0.00 | 57 | 1008.6 |
| 20260505113038 | 17 | 256 | 0.0 | 3.2 | 0.00 | 0.00 | 0.00 | 56 | 1008.5 |
| 20260505112527 | 17 | 192 | 0.0 | 3.2 | 0.00 | 0.00 | 0.00 | 55 | 1008.5 |
| 20260505112027 | 17 | 187 | 0.0 | 1.6 | 0.00 | 0.00 | 0.00 | 55 | 1008.5 |
| 20260505111539 | 17 | 195 | 0.0 | 3.2 | 0.00 | 0.00 | 0.00 | 54 | 1008.4 |
| 20260505111028 | 17 | 193 | 0.0 | 3.2 | 0.00 | 0.00 | 0.00 | 54 | 1008.4 |
| 20260505110524 | 17 | 209 | 0.0 | 3.2 | 0.00 | 0.00 | 0.00 | 54 | 1008.4 |
| 20260505102019 | 18 | 207 | 1.6 | 8.0 | 0.00 | 0.00 | 0.00 | 51 | 1008.6 |
| 20260505101529 | 18 | 186 | 1.6 | 8.0 | 0.00 | 0.00 | 0.00 | 51 | 1008.6 |
| 20260505101018 | 18 | 213 | 1.6 | 8.0 | 0.00 | 0.00 | 0.00 | 51 | 1008.6 |
| 20260505100517 | 18 | 200 | 1.6 | 8.0 | 0.00 | 0.00 | 0.00 | 51 | 1008.6 |
| 20260505100016 | 18 | 193 | 0.0 | 6.4 | 0.00 | 0.00 | 0.00 | 51 | 1008.7 |
| 20260505095516 | 18 | 232 | 1.6 | 6.4 | 0.00 | 0.00 | 0.00 | 51 | 1008.8 |
| 20260505095015 | 18 | 251 | 0.0 | 6.4 | 0.00 | 0.00 | 0.00 | 51 | 1008.8 |
| 20260505094514 | 18 | 239 | 1.6 | 6.4 | 0.00 | 0.00 | 0.00 | 51 | 1008.9 |
| 20260505094013 | 18 | 243 | 0.0 | 11.3 | 0.00 | 0.00 | 0.00 | 51 | 1009.0 |
| 20260505093512 | 18 | 234 | 1.6 | 11.3 | 0.00 | 0.00 | 0.00 | 50 | 1009.1 |
| 20260505093012 | 18 | 257 | 4.8 | 9.7 | 0.00 | 0.00 | 0.00 | 50 | 1009.1 |
| 20260505092510 | 19 | 215 | 3.2 | 11.3 | 0.00 | 0.00 | 0.00 | 50 | 1009.1 |
| 20260505092009 | 19 | 249 | 1.6 | 11.3 | 0.00 | 0.00 | 0.00 | 50 | 1009.2 |
| 20260505091510 | 19 | 259 | 3.2 | 19.3 | 0.00 | 0.00 | 0.00 | 49 | 1009.4 |
| 20260505091010 | 19 | 269 | 6.4 | 19.3 | 0.00 | 0.00 | 0.00 | 49 | 1009.4 |
| 20260505090508 | 19 | 264 | 6.4 | 19.3 | 0.00 | 0.00 | 0.00 | 48 | 1009.3 |
| 20260505090007 | 19 | 207 | 6.4 | 16.1 | 0.00 | 0.00 | 0.00 | 48 | 1009.3 |
| 20260505085509 | 19 | 273 | 6.4 | 16.1 | 0.00 | 0.00 | 0.00 | 47 | 1009.3 |
| 20260505085007 | 19 | 241 | 6.4 | 14.5 | 0.00 | 0.00 | 0.00 | 48 | 1009.6 |
| 20260505084521 | 19 | 275 | 3.2 | 14.5 | 0.00 | 0.00 | 0.00 | 49 | 1009.4 |
| 20260505084004 | 19 | 225 | 6.4 | 14.5 | 0.00 | 0.00 | 0.00 | 49 | 1009.4 |
| 20260505083503 | 20 | 257 | 6.4 | 12.9 | 0.00 | 0.00 | 0.00 | 49 | 1009.6 |
| 20260505083005 | 20 | 241 | 1.6 | 12.9 | 0.00 | 0.00 | 0.00 | 49 | 1009.6 |
| 20260505082503 | 20 | 292 | 4.8 | 16.1 | 0.00 | 0.00 | 0.00 | 49 | 1009.7 |
| 20260505082003 | 20 | 254 | 4.8 | 12.9 | 0.00 | 0.00 | 0.00 | 48 | 1009.8 |
| 20260505081501 | 20 | 195 | 4.8 | 12.9 | 0.00 | 0.00 | 0.00 | 47 | 1009.8 |
| 20260505081002 | 20 | 281 | 3.2 | 9.7 | 0.00 | 0.00 | 0.00 | 47 | 1009.9 |
| 20260505080503 | 20 | 275 | 3.2 | 16.1 | 0.00 | 0.00 | 0.00 | 46 | 1010.0 |
| 20260505080002 | 20 | 213 | 4.8 | 16.1 | 0.00 | 0.00 | 0.00 | 47 | 1010.0 |
| 20260505075600 | 20 | 221 | 3.2 | 11.3 | 0.00 | 0.00 | 0.00 | 47 | 1010.0 |
| 20260505075059 | 20 | 258 | 3.2 | 11.3 | 0.00 | 0.00 | 0.00 | 47 | 1009.9 |
| 20260505074559 | 20 | 238 | 3.2 | 9.7 | 0.00 | 0.00 | 0.00 | 44 | 1010.0 |
| 20260505074057 | 20 | 233 | 3.2 | 9.7 | 0.00 | 0.00 | 0.00 | 41 | 1010.0 |
| 20260505073557 | 20 | 240 | 0.0 | 8.0 | 0.00 | 0.00 | 0.00 | 39 | 1009.9 |
| 20260505073057 | 20 | 231 | 3.2 | 8.0 | 0.00 | 0.00 | 0.00 | 39 | 1009.9 |
| 20260505072600 | 20 | 238 | 1.6 | 9.7 | 0.00 | 0.00 | 0.00 | 37 | 1009.6 |
| 20260505072056 | 20 | 267 | 1.6 | 9.7 | 0.00 | 0.00 | 0.00 | 36 | 1009.7 |
| 20260505071559 | 20 | 256 | 1.6 | 9.7 | 0.00 | 0.00 | 0.00 | 36 | 1009.7 |
| 20260505071053 | 21 | 253 | 3.2 | 11.3 | 0.00 | 0.00 | 0.00 | 35 | 1009.6 |
| 20260505070552 | 21 | 280 | 4.8 | 11.3 | 0.00 | 0.00 | 0.00 | 34 | 1009.6 |
| 20260505065551 | 21 | 239 | 3.2 | 12.9 | 0.00 | 0.00 | 0.00 | 33 | 1009.7 |
| 20260505065051 | 21 | 239 | 0.0 | 8.0 | 0.00 | 0.00 | 0.00 | 35 | 1009.6 |
| 20260505064555 | 21 | 240 | 0.0 | 8.0 | 0.00 | 0.00 | 0.00 | 34 | 1009.6 |
| 20260505064049 | 21 | 231 | 0.0 | 6.4 | 0.00 | 0.00 | 0.00 | 35 | 1009.7 |
| 20260505063550 | 21 | 261 | 1.6 | 6.4 | 0.00 | 0.00 | 0.00 | 34 | 1009.4 |
| 20260505063049 | 21 | 268 | 1.6 | 8.0 | 0.00 | 0.00 | 0.00 | 35 | 1009.5 |
| 20260505062549 | 21 | 255 | 1.6 | 11.3 | 0.00 | 0.00 | 0.00 | 35 | 1009.6 |
| 20260505062052 | 21 | 290 | 4.8 | 9.7 | 0.00 | 0.00 | 0.00 | 36 | 1009.5 |
| 20260505061610 | 21 | 261 | 0.0 | 8.0 | 0.00 | 0.00 | 0.00 | 38 | 1009.5 |
| 20260505061047 | 21 | 261 | 3.2 | 9.7 | 0.00 | 0.00 | 0.00 | 39 | 1009.4 |
| 20260505060547 | 21 | 259 | 3.2 | 8.0 | 0.00 | 0.00 | 0.00 | 39 | 1009.4 |
| 20260505060053 | 21 | 242 | 0.0 | 4.8 | 0.00 | 0.00 | 0.00 | 39 | 1009.3 |
| 20260505055550 | 21 | 201 | 1.6 | 4.8 | 0.00 | 0.00 | 0.00 | 39 | 1009.2 |
| 20260505055047 | 21 | 225 | 1.6 | 6.4 | 0.00 | 0.00 | 0.00 | 39 | 1009.1 |
| 20260505054549 | 21 | 255 | 1.6 | 6.4 | 0.00 | 0.00 | 0.00 | 39 | 1009.0 |
| 20260505054045 | 21 | 252 | 1.6 | 11.3 | 0.00 | 0.00 | 0.00 | 39 | 1009.2 |
| 20260505053545 | 21 | 223 | 3.2 | 11.3 | 0.00 | 0.00 | 0.00 | 39 | 1009.2 |
| 20260505053045 | 21 | 231 | 1.6 | 4.8 | 0.00 | 0.00 | 0.00 | 39 | 1009.3 |
| 20260505052549 | 21 | 198 | 1.6 | 6.4 | 0.00 | 0.00 | 0.00 | 39 | 1009.4 |
| 20260505052045 | 21 | 227 | 0.0 | 6.4 | 0.00 | 0.00 | 0.00 | 39 | 1009.2 |
| 20260505051544 | 21 | 272 | 3.2 | 8.0 | 0.00 | 0.00 | 0.00 | 39 | 1009.2 |
| 20260505051045 | 21 | 293 | 1.6 | 8.0 | 0.00 | 0.00 | 0.00 | 39 | 1009.3 |
| 20260505050543 | 21 | 297 | 3.2 | 8.0 | 0.00 | 0.00 | 0.00 | 39 | 1009.5 |